Weather Roundup
Issued by NWS

Home | Current Version | Previous Version | Text Only | Print | Product List | Glossary On
Versions: 1 2 3 4 5 6 7 8 9 10 11 12 13 14 15 16 17 18 19 20 21 22 23 24 25 26 27 28 29 30 31 32 33 34 35 36 37 38 39 40 41 42 43 44 45 46 47 48 49 50
000
NZUS93 KARX 191110
HRRWXR

CURRENT HOURLY OBSERVATIONS ACROSS
MUCH OF THE UPPER MISSISSIPPI VALLEY
NATIONAL WEATHER SERVICE LA CROSSE WI
600 AM CDT TUE AUG 19 2014


...SOUTHEAST MINNESOTA...


CITY           SKY/WX    TMP DP  RH WIND       PRES   REMARKS
ROCHESTER      MOCLDY    65  63  93 NW7       29.71S FOG
ROCHESTER/MAYO CLOUDY    65  64  96 W12       29.70S
WINONA         CLEAR     63  61  94 NW6       29.67S
AUSTIN         CLOUDY    64  63  94 NW10      29.70F FOG
ALBERT LEA     CLOUDY    64  64 100 NW5       29.72S FOG
DODGE CENTER   CLOUDY    66  64  94 NW13      29.71S FOG
PRESTON        CLEAR     62  62 100 NW8       29.70F FOG
OWATONNA       CLOUDY    66  64  94 W7        29.72S FOG
FARIBAULT      CLEAR     66  63  88 W6        29.72R HAZE
$$

...ELSEWHERE IN MINNESOTA...


CITY           SKY/WX    TMP DP  RH WIND       PRES   REMARKS
MINNEAPOLIS    PTCLDY    65  63  93 W6        29.70R
INTNL FALLS    CLOUDY    61  60  97 NW5       29.70R FOG
DULUTH         CLOUDY    60  58  92 W5        29.68R
RED WING       CLOUDY    64  63  94 W6        29.68R FOG
REDWOOD FALLS  CLEAR     63  62  97 W8        29.75R
MANKATO        CLOUDY    64  61  88 W8        29.73S
WORTHINGTON    CLEAR     61   5  11 W6        29.79F
FAIRMONT       CLEAR     64  59  82 NW9       29.75S
$$

...SOUTHWEST WISCONSIN...


CITY           SKY/WX    TMP DP  RH WIND       PRES   REMARKS
LA CROSSE      CLEAR     67  63  87 CALM      29.65F
PRAIRIE DU CHI CLEAR     65  63  93 CALM      29.67R
BOSCOBEL       CLEAR     66  64  93 SW5       29.67S
LONE ROCK      PTCLDY    67  63  87 SE3       29.67S
PLATTEVILLE    CLOUDY    67  65  96 SW3       29.70S
FORT MC COY    CLEAR     61  60  97 CALM      29.67S
CAMP DOUGLAS   FOG       59  59 100 NW1       29.66S VSB 1/2
VIROQUA        FAIR      64  64 100 W3        29.67F
WIS DELLS      PTCLDY    64  62  94 SW5       29.67S
$$

...ELSEWHERE IN WISCONSIN...


CITY           SKY/WX    TMP DP  RH WIND       PRES   REMARKS
MILWAUKEE      CLOUDY    66  63  90 SW13      29.70F
MADISON        CLOUDY    67  64  90 S6        29.67S
GREEN BAY      MOCLDY    63  63 100 SW3       29.66R
EAU CLAIRE     CLOUDY    64  64 100 CALM      29.66R
BLACK RVR FLS  FOG       61  61 100 CALM      29.65S VSB 1/4
MEDFORD        FOG       62  62 100 W3        29.68R VSB 1/2
WAUSAU         CLOUDY    64  63  96 W5        29.65R
WIS RAPIDS     CLOUDY    63  63 100 SW5       29.67R FOG
MARSHFIELD     FOG       64  63  96 W6        29.67R VSB 1/2
RICE LAKE      CLOUDY    62  60  96 CALM      29.69S FOG
$$

...NORTHEAST IOWA...


CITY           SKY/WX    TMP DP  RH WIND       PRES   REMARKS
WATERLOO       CLEAR     67  64  90 W6        29.70R
DUBUQUE        CLOUDY    69  69 100 SW7       29.69S FOG
DECORAH        CLEAR     64  63  94 CALM      29.68S
MASON CITY     CLEAR     63  62  97 W7        29.74S
CHARLES CITY   CLEAR     64  63  94 W6        29.72R
OELWEIN        CLEAR     64  64 100 W7        29.72R
$$

...ELSEWHERE IN IOWA...


CITY           SKY/WX    TMP DP  RH WIND       PRES   REMARKS
DES MOINES     MOCLDY    70  67  90 NW3       29.73F
IOWA CITY      CLEAR     69  68  96 CALM      29.73S
FORT DODGE     CLEAR     63  61  94 W3        29.77R
MARSHALLTOWN   CLEAR     65  64  97 W6        29.72S
CEDAR RAPIDS   CLEAR     68  68 100 SW6       29.71R FOG
$$

...NORTHERN ILLINOIS...


CITY           SKY/WX    TMP DP  RH WIND       PRES   REMARKS
CHICAGO-OHARE  MOCLDY    72  66  81 S8        29.73S
DUPAGE         CLOUDY    71  67  87 S9        29.72F THUNDER
CHICAGO-MIDWAY MOCLDY    74  69  85 S8        29.74F
MOLINE         CLEAR     72  68  87 SW9       29.71S
ROCKFORD       CLOUDY    71  68  90 SW8       29.74R
STERLING       PTCLDY    70  66  88 W3        29.73S
PEORIA         CLEAR     70  67  90 S7        29.76F FOG
$$

NOTE: "FAIR" INDICATES FEW OR NO CLOUDS BELOW 12,000 FEET WITH NO
SIGNIFICANT WEATHER AND/OR OBSTRUCTIONS TO VISIBILITY. WIND
SPEEDS ARE IN MILES-PER-HOUR.



USA.gov is the U.S. government's official web portal to all federal, state and local government web resources and services.